TimeCST,TemperatureF,Dew PointF,Humidity,Sea Level PressureIn,VisibilityMPH,Wind Direction,Wind SpeedMPH,Gust SpeedMPH,PrecipitationIn,Events,Conditions,WindDirDegrees,DateUTC
12:58 AM,12.7,5.2,72,30.26,10.0,SE,4.6,-,N/A,,Overcast,130,2014-01-22 06:58:00
1:58 AM,12.9,5.2,71,30.25,10.0,SE,4.6,-,N/A,,Overcast,130,2014-01-22 07:58:00
2:58 AM,13.1,6.4,75,30.21,10.0,SSE,6.9,-,N/A,,Overcast,160,2014-01-22 08:58:00
3:58 AM,13.6,7.2,75,30.18,10.0,South,8.1,-,N/A,,Overcast,170,2014-01-22 09:58:00
4:58 AM,14.0,7.9,77,30.17,10.0,South,6.9,-,N/A,,Overcast,170,2014-01-22 10:58:00
5:58 AM,14.7,8.6,77,30.16,10.0,South,5.8,-,N/A,,Overcast,170,2014-01-22 11:58:00
6:58 AM,15.4,9.7,78,30.15,10.0,South,8.1,-,N/A,,Overcast,180,2014-01-22 12:58:00
7:58 AM,16.9,11.1,78,30.13,10.0,South,5.8,-,N/A,,Overcast,190,2014-01-22 13:58:00
8:58 AM,18.3,12.2,77,30.12,10.0,South,9.2,-,N/A,,Overcast,190,2014-01-22 14:58:00
9:58 AM,20.5,14.0,76,30.12,10.0,SW,9.2,-,N/A,,Overcast,220,2014-01-22 15:58:00
10:58 AM,23.0,14.0,68,30.11,10.0,Variable,3.5,-,N/A,,Overcast,0,2014-01-22 16:58:00
11:58 AM,26.1,13.1,58,30.08,10.0,West,9.2,-,N/A,,Overcast,260,2014-01-22 17:58:00
12:58 PM,26.2,15.4,64,30.08,10.0,NW,12.7,24.2,N/A,,Overcast,310,2014-01-22 18:58:00
1:16 PM,26.6,15.8,64,30.05,10.0,WNW,10.4,-,N/A,,Mostly Cloudy,290,2014-01-22 19:16:00
1:30 PM,24.8,15.8,69,30.05,10.0,WNW,12.7,20.7,N/A,,Mostly Cloudy,300,2014-01-22 19:30:00
1:58 PM,26.6,14.2,60,30.07,10.0,WNW,12.7,24.2,0.00,,Scattered Clouds,290,2014-01-22 19:58:00
2:58 PM,27.7,14.0,57,30.06,10.0,West,10.4,18.4,N/A,,Clear,270,2014-01-22 20:58:00
3:58 PM,28.4,14.0,55,30.09,10.0,WNW,9.2,-,N/A,,Clear,300,2014-01-22 21:58:00
4:58 PM,25.9,14.4,62,30.12,10.0,NW,11.5,17.3,N/A,,Clear,310,2014-01-22 22:58:00
5:58 PM,25.2,13.5,61,30.15,10.0,WNW,3.5,-,N/A,,Overcast,300,2014-01-22 23:58:00
6:58 PM,25.2,14.9,65,30.17,10.0,WSW,3.5,-,N/A,,Overcast,240,2014-01-23 00:58:00
7:58 PM,24.1,14.0,65,30.19,10.0,WNW,9.2,-,N/A,,Partly Cloudy,300,2014-01-23 01:58:00
8:58 PM,22.1,15.4,76,30.22,10.0,NNW,16.1,-,N/A,,Mostly Cloudy,340,2014-01-23 02:58:00
9:58 PM,22.3,10.0,59,30.25,10.0,NNW,20.7,27.6,N/A,,Overcast,330,2014-01-23 03:58:00
10:58 PM,19.2,7.7,61,30.29,10.0,NNW,17.3,-,N/A,,Mostly Cloudy,340,2014-01-23 04:58:00
11:28 PM,17.6,6.8,63,30.28,10.0,North,20.7,-,N/A,,Overcast,350,2014-01-23 05:28:00
11:48 PM,15.8,1.4,53,30.30,10.0,NNW,18.4,27.6,N/A,,Overcast,330,2014-01-23 05:48:00
11:58 PM,15.4,2.3,56,30.34,10.0,North,20.7,25.3,N/A,,Overcast,350,2014-01-23 05:58:00